珠海一号 03C星 (ZHUHAI-1 03C)

导读

ZHUHAI-1 03C(珠海一号03C)是中国于2019年9月19日发射的遥感卫星,隶属于珠海一号商业遥感星座。珠海一号是全球领先的多源融合遥感星座,该卫星依托星座高时间分辨率、高空间分辨率的观测能力,可为农业、地质、国防、资源勘查等领域提供优质遥感数据支撑,助力全球地理信息获取与行业应用创新。

基本信息
目录编号:
44537
目录名称:
ZHUHAI-1 03C
国际标识:
2019-060D
轨道中心:
EARTH
卫星名称:
珠海一号 03C星
卫星全名:
珠海一号 03C星 (ZHUHAI-1 03C)
卫星状态:
已陨落 最后检测时间 2026-06-04
发射日期:
2019-09-19 UTC
国别 :
中国 (CN)
星等 :
--
轨道信息
数据来源 国际轨道数据
星历时间: 2026-06-03T16:18:21+0800
轨道信息已过期9天
半长轴: 6560.416km
偏心率: 0.0012301
轨道倾角: 97.522°
近地点辐角 266.479°
升交点赤经 325.714°
平近点角 93.510°
近地点: 174.209km
远地点: 190.349km
周期: 88.137分钟
每日圈数: 16.338257
详细信息
平衡模式:
三轴稳定
覆盖范围:
全球
运营商:
珠海欧比特宇航科技股份有限公司
运营商所在国:
中国
制造商(研发单位):
珠海欧比特宇航科技股份有限公司
制造商所在国:
中国
使用方式:
暂无
卫星简介
珠海一号(Zhuhai-1)卫星星座是由珠海欧比特宇航科技股份有限公司发射并运营的商业遥感微纳卫星星座,整个星座由34颗遥感卫星组成,分别是2颗视频试验卫星、10颗视频卫星、10颗高光谱卫星、2颗高分光学卫星、2颗SAR卫星和8颗红外卫星。该卫星仍在工作。